Preview of NWS' New Version of Forecast
This preview is not operational and should not be used for support decisions.

Regional Weather Roundup (RWR)

Issued by Gray - Portland, ME (GYX)

                            
000
ASUS41 KGYX 241205
RWRGYX
WEATHER ROUNDUP FOR MAINE AND NEW HAMPSHIRE
NATIONAL WEATHER SERVICE GRAY ME
800 AM EDT FRI MAY 24 2019

MEZ002-005-006-010-012-015-018-020-021-024-026-027-029-241300-
MAINE
  
CITY           SKY/WX    TMP DP  RH WIND       PRES   REMARKS
PORTLAND       FAIR      61  55  81 W12       29.57R                  
6HR MIN TEMP:  53; 6HR MAX TEMP:  61;                                

SANFORD        FAIR      63  55  75 W12       29.60R                  
BAR HARBOR     LGT RAIN  47  47 100 N6        29.57R                  
WISCASSET      CLOUDY    53  52  96 VRB5      29.59R                  
6HR MIN TEMP:  51; 6HR MAX TEMP:  53;                                

ROCKLAND       CLOUDY    48  48 100 NE6       29.57R FOG              
FRYEBURG       CLOUDY    61  53  75 NW7       29.60R                  
6HR MIN TEMP:  50; 6HR MAX TEMP:  61;                                

LEWISTONAUBURN CLOUDY    54  54 100 N7        29.60R                  
AUGUSTA        LGT RAIN  49  49 100 N8        29.62R FOG              
6HR MIN TEMP:  49; 6HR MAX TEMP:  51; 6HR PCP:  0.01;                

WATERVILLE     LGT RAIN  48  47  96 N14       29.60R                  
BANGOR         LGT RAIN  48  46  93 N14       29.61R FOG              
6HR MIN TEMP:  48; 6HR MAX TEMP:  49; 6HR PCP:  0.27;                

GREENVILLE       N/A     45  41  86 NE8       29.66R                  
6HR MIN TEMP:  44; 6HR MAX TEMP:  46; 6HR PCP:  0.71;                

MILLINOCKET    CLOUDY    49  46  90 NE7G17    29.71R                  
6HR MIN TEMP:  47; 6HR MAX TEMP:  49; 6HR PCP:  0.69;                

HOULTON        LGT RAIN  48  45  89 NE14G24   29.74R                  
6HR MIN TEMP:  46; 6HR MAX TEMP:  48; 6HR PCP:  0.35;                

PRESQUE ISLE   LGT RAIN  49  46  90 NE12      29.83R                  
6HR MIN TEMP:  48; 6HR MAX TEMP:  50; 6HR PCP:  0.22;                

FRENCHVILLE    LGT RAIN  49  43  80 NE9       29.85R                  
6HR MIN TEMP:  49; 6HR MAX TEMP:  52; 6HR PCP:  0.04;                

CARIBOU        LGT RAIN  49  45  86 NE8       29.83R                  
6HR MIN TEMP:  49; 6HR MAX TEMP:  52; 6HR PCP:  0.20;                

$$

NHZ002-005-008-009-011-012-014-241300-
NEW HAMPSHIRE
  
CITY           SKY/WX    TMP DP  RH WIND       PRES   REMARKS
PORTSMOUTH     MOSUNNY   63  54  73 W15G21    29.59R                  
ROCHESTER      FAIR      63  53  70 W9G22     29.60S                  
6HR MIN TEMP:  52; 6HR MAX TEMP:  63;                                

NASHUA         FAIR      64  54  69 NW21G26   29.66S                  
MANCHESTER     PTSUNNY   62  54  74 W10       29.65R                  
6HR MIN TEMP:  57; 6HR MAX TEMP:  62;                                

CONCORD        CLOUDY    60  52  74 W17G23    29.65R                  
6HR MIN TEMP:  51; 6HR MAX TEMP:  60;                                

LACONIA        CLOUDY    60  53  77 W8        29.65R                  
PLYMOUTH       CLOUDY    58  52  79 W8        29.66R                  
BERLIN         NOT AVBL                                               
WHITEFIELD     CLOUDY    54  47  77 NW14G21   29.69R                  
6HR MIN TEMP:  54; 6HR MAX TEMP:  58; 6HR PCP:  0.07;                

JAFFREY        CLOUDY    58  51  78 VRB3      29.72R                  
6HR MIN TEMP:  54; 6HR MAX TEMP:  58;                                

KEENE          CLOUDY    59  53  80 VRB7G20   29.73R                  
LEBANON        CLOUDY    59  51  75 NW14G20   29.71R                  
6HR MIN TEMP:  51; 6HR MAX TEMP:  60; 6HR PCP:  0.01;                

MT WASHINGTON  FOG       34  34 100 NW70G79     N/A  VSB 0   WCI  15  
6HR MIN TEMP:  35; 6HR MAX TEMP:  42; 6HR PCP:  0.66;                

$$

VTZ005-007-008-241300-
VERMONT
  
CITY           SKY/WX    TMP DP  RH WIND       PRES   REMARKS
ST JOHNSBURY     N/A     55  50  83 MISG      29.71R                  
MONTPELIER     CLOUDY    52  49  89 NW15G23   29.80R                  
BURLINGTON     CLOUDY    53  51  93 N15G24    29.82R                  
$$

MAZ007-012-024-CTZ003-RIZ002-NYZ038-NYZ072-241300-
SOUTHERN NEW ENGLAND AND NY
  
CITY           SKY/WX    TMP DP  RH WIND       PRES   REMARKS
BOSTON         FAIR      67  52  58 W20G29    29.65R                  
WORCESTER      FAIR      58  51  78 W18G24    29.72R                  
NANTUCKET      FAIR      63  54  72 W21G30    29.66F                  
PROVIDENCE     FAIR      65  52  62 W16G25    29.70R                  
HARTFORD       PTSUNNY   63  51  65 NW5       29.77R                  
ALBANY         PTSUNNY   62  50  64 NW15G28   29.83R                  
NEW YORK CITY  FAIR      68  49  50 NW25G37   29.84S                  
$$

ANZ081-ANZ082-ANZ150-NHZ014-MEZ023>029-241300-
COASTAL MARINE OBSERVATIONS
  
STATION/POSITION TIME  TEMP    WIND        PRES    WAVE
                       AIR SEA DIR/SP/G            HT/PER
                 (UTC) (F)     (DEG/KT/KT) (MB)    (FT/S)
ISLE OF SHOALS   1100   59     270/ 24/ 25 1001.2F
JEFFREYS LEDGE   1138      47                N/A     4/ 8
GEORGES BANK BUO 1150   50 44  220/ 16/ 19 1004.4F   8/ 7
$$

.............KEY..............
   WCI - WIND CHILL
   TC  - TEMPERATURE IN CELSIUS
   VSB - VISIBILITY IN MILES
   HX  - HEAT INDEX
   FAIR- INDICATES FEW OR NO CLOUDS BELOW 12,000 FT, WITH NO 
         SIGNIFICANT WEATHER AND/OR OBSTRUCTIONS TO VISIBILITY.